Showing default

HULIANWANG DIGUI-17, 62977

Orbit data source: Space-Track

HULIANWANG DIGUI-17, 62977 is a payload satellite owned by Zhongguo Xingwang (CN) in LEO that was launched on Tue, 11 Feb 2025 UTC via a CHANG ZHENG 8A launch vehicle from the Wenchang Satellite Launch Center (WSC). Payload-class satellites include a variety of spacecraft equipped with specific instruments for various scientific and technological missions. These include communications satellites like Starlink; space stations such as the ISS; scientific satellites like the Hubble; Earth observation satellites from companies like Planet Labs, Umbra, and HawkEye 360; GPS; miniature CubeSats for education and research; and military/defense satellites.

Loading next visibility...
Identifier
62977, 2025-030G
Orbit
LEO
Last TLE update
13 hours ago
Origin
Manufacturer
CAST
Mission
Operational Civil Communications
Bus & Motor
HWHD, Unknown motor
Mass
~800 kg wet, ~800 kg dry
Launch date (UTC)
2025-02-11 (5 months ago)
Launch vehicle
CHANG ZHENG 8A
Launch site
Wenchang Satellite Launch Center (WSC)
Object type
Payload
Rocket body
Debris
Shape & HBR
Box + 2 Pan, 10 m
Radar Cross Section
5.935 m², Large (>1 m²)

Expand to show TLE details & history

TLE from 13 hours ago
0 HULIANWANG DIGUI-17
1 62977U 25030G   25181.87240044 -.00000087  00000-0  79320-4 0  9998
2 62977  50.0073  55.5420 0000368 126.9432 233.1474 13.29332121 19138
Epoch: 2025-06-30T20:56Z
TLE epoch observation values (Epoch: 2025-06-30T20:56:15.397Z)
Latitude
-0.00003°
Longitude
-177.69816°
Altitude
1,149.956 km
Speed
7.279 km/s
True Right ascension
03h 42m 10s
True Declination
0° 00' 00"
Sunlit
Object was in daylight at epoch
Visualization orbit readout
Latitude
26.76347°
Longitude
-24.58673°
Altitude
1,149.895 km
Speed
7.282 km/s
Apparent Right ascension
12h 15m 49s
Apparent Declination
-3° 56' 44"
Sunlit
Object is in daylight
Visualization observer readout
Local Sidereal Time
21:55:47
Azimuth
309.488° NW
Elevation
-42.136°
Doppler factor
1
Orbital elements
Apogee altitude
1,150.265 km
Perigee altitude
1,149.711 km
Semi-major axis
7,528.125 km
Eccentricity
0.00004
Inclination
50.0073°
RAAN
55.542°
Arg. of periapsis
126.9432°
True anomaly
Unknown
Mean anomaly
233.1474°
Eccentric anomaly
Unknown
Mean motion
3.32287 °/min
Orbital period
108.34 mins
BSTAR
0.00007932
Loading maneuver chart data...
Loading SW <> Apogee altitude chart data...
Loading historical data...
Loading historical data...
Loading historical data...
Loading historical data...
Loading historical data...
Loading historical data...
Loading historical data...

HULIANWANG DIGUI-17 Visibility forecast

Observer location: undefined°, undefined°

Span
Click to sort rows by Start time (UTC) header in descending order
Start Az.
Max El. time (UTC)
Max El. Az.
Max El.
End time (UTC)
End Az.
11 mins2025-07-01 16:54:22.277Z179.458° S2025-07-01 16:59:22.277Z131.493° SE24.768°2025-07-01 17:05:22.277Z74.717° E
13 mins2025-07-01 18:46:22.277Z236.546° WSW2025-07-01 18:52:22.277Z267.207° W44.761°2025-07-01 18:59:22.277Z55.574° ENE
12 mins2025-07-01 20:41:22.277Z282.174° WNW2025-07-01 20:47:22.277Z353.275° N33.722°2025-07-01 20:53:22.277Z55.304° ENE
12 mins2025-07-01 22:36:22.277Z306.051° NW2025-07-01 22:42:22.277Z15.118° NNE33.428°2025-07-01 22:48:22.277Z78.362° E
13 mins2025-07-02 00:30:22.277Z305.127° NW2025-07-02 00:36:22.277Z353.802° N44.644°2025-07-02 00:43:22.277Z121.593° SE
10 mins2025-07-02 02:25:22.277Z278.292° WNW2025-07-02 02:29:22.277Z236.626° WSW25.907°2025-07-02 02:35:22.277Z176.65° S
|